Regional Weather Roundup
Issued by NWS

Home | Current Version | Previous Version | Graphics & Text | Print | Product List | Glossary On
Versions: 1 2 3 4 5 6 7 8 9 10 11 12 13 14 15 16 17 18 19 20 21 22 23 24 25 26 27 28 29 30 31 32 33 34 35 36 37 38 39 40 41 42 43 44 45 46 47 48 49 50
000
ASUS44 KMEG 251610
RWRTN
TENNESSEE HOURLY STATE WEATHER ROUNDUP
NATIONAL WEATHER SERVICE MEMPHIS TN
1100 AM CDT MON JUL 25 2016

TNZ002-004-019-021-049-052-054-088>092-251700-
WEST TENNESSEE

CITY           SKY/WX    TMP DP  RH WIND       PRES   REMARKS
MEMPHIS INTL   MOSUNNY   91  75  59 SW6       30.03S HX 101
NWS MEMPHIS      N/A     90 N/A N/A MISG        N/A
JACKSON        SUNNY     90  76  63 SW8       30.04S HX 101
DYERSBURG      MOSUNNY  N/A N/A N/A MISG        N/A
UNION CITY     PTSUNNY   88  79  74 SW5       30.03R HX 102
PARIS          SUNNY     88  75  66 S10       30.04S HX  97
LEXINGTON      SUNNY     90  75  62 S7        30.05R HX 100
$$

TNZ008-025-027-028-033-062-065-066-251700-
NORTH MIDDLE TENNESSEE

CITY           SKY/WX    TMP DP  RH WIND       PRES   REMARKS
NASHVILLE      PTSUNNY   91  73  55 W3        30.05S HX  99
CLARKSVILLE    SUNNY     88  75  65 S8        30.03S HX  97
SMYRNA         MOSUNNY   93  75  55 VRB7      30.06S HX 104
COOKEVILLE     SUNNY     91  75  59 VRB3      30.08S HX 102
CROSSVILLE     MOSUNNY   85  71  63 VRB5      30.14S HX  90
$$

TNZ061-075-076-078-094-096-097-251700-
SOUTH MIDDLE TENNESSEE

CITY           SKY/WX    TMP DP  RH WIND       PRES   REMARKS
TULLAHOMA      SUNNY     90  70  51 W10       30.10S HX  95
WINCHESTER     SUNNY     91  72  52 W8        30.09R HX  98
MCMINNVILLE    MOSUNNY   90  75  62 SW7       30.09S HX 100
COLUMBIA       MOSUNNY   93  75  55 SW9       30.05R HX 104
SHELBYVILLE    MOSUNNY   91  75  59 SW5       30.08S HX 102
$$

TNZ017-018-042-046-047-251700-
NORTHEAST TENNESSEE

CITY           SKY/WX    TMP DP  RH WIND       PRES   REMARKS
TRI CITIES     PTSUNNY   88  71  57 W6        30.10S HX  94
$$

TNZ012-013-036-069-073-074-251700-
CENTRAL EAST TENNESSEE

CITY           SKY/WX    TMP DP  RH WIND       PRES   REMARKS
KNOXVILLE      MOSUNNY   91  71  51 W9        30.07S HX  97
OAK RIDGE      SUNNY     90  72  55 SW5       30.09R HX  97
GATLINBURG       N/A     91  70  49 W6        30.06S HX  97
$$

TNZ083-085-099-251700-
SOUTHEAST TENNESSEE

CITY           SKY/WX    TMP DP  RH WIND       PRES   REMARKS
CHATTANOOGA    MOSUNNY   91  70  49 W5        30.07S HX  96
$$

SKY/WX REPORTED AS FAIR MEANS FEW OR NO CLOUDS BELOW
12 THOUSAND FEET.





USA.gov is the U.S. government's official web portal to all federal, state and local government web resources and services.